Location: Newark
(41.7772°N, 74.7403°W)
Time: 13:27:07
(UTC+00:00)

Transit 4A - Pass Details

Date: 29 May 2020
Orbit: 866 x 978 km, 66.8° (Epoch: 06 July)

Event Time Altitude Azimuth Distance (km) Brightness Sun altitude
Exits shadow 08:46:32 - 266° (W) 3,152 10.2 -7.2°
Reaches altitude 10° 08:48:55 10° 281° (W) 2,525 9.8 -6.9°
Maximum altitude 08:52:41 17° 322° (NW) 2,068 9.7 -6.3°
Drops below altitude 10° 08:56:30 10° 2° (N) 2,567 10.8 -5.7°
Sets 09:00:00 0° 22° (NNE) 3,532 12.0 -5.2°
